Location: Newark
(36.0797°N, 3.9744°E)
Time: 23:10:27
(UTC+00:00)

Vanguard 2 Rocket - Pass Details

Date: 14 December 2019
Orbit: 554 x 3326 km, 32.9° (Epoch: 20 January)

Event Time Altitude Azimuth Distance (km) Brightness Sun altitude
Rises 11:39:16 0° 180° (S) 7,131 12.6 30.7°
Reaches altitude 10° 11:49:43 10° 154° (SSE) 6,277 12.2 30.7°
Maximum altitude 11:55:33 12° 136° (SE) 6,046 11.8 30.6°
Drops below altitude 10° 12:01:11 10° 119° (ESE) 6,049 11.5 30.5°
Sets 12:10:21 0° 93° (E) 6,577 11.2 30.2°
